Weather Roundup
Issued by NWS Chicago, IL

Home | Current Version | Previous Version | Graphics & Text | Print | Product List | Glossary On
Versions: 1 2 3 4 5 6 7 8 9 10 11 12 13 14 15 16 17 18 19 20 21 22 23 24 25 26 27 28 29 30 31 32 33 34 35 36 37 38 39 40 41 42 43 44 45 46 47 48 49 50
000
NZUS59 KLOT 182104
HRRLOT

CHICAGO AREA WEATHER ROUNDUP
NATIONAL WEATHER SERVICE CHICAGO/ROMEOVILLE IL
400 PM CDT WED OCT 18 2017

NOTE: "FAIR" INDICATES FEW OR NO CLOUDS BELOW 12,000 FEET WITH NO
SIGNIFICANT WEATHER AND/OR OBSTRUCTIONS TO VISIBILITY.

* THESE STATIONS ARE NOT UNDER NWS QUALITY CONTROL. THEY ALSO MAY NOT
  REPORT WEATHER SUCH AS PRECIPITATION OR FOG.

ILZ005-006-012>014-019>023-182200-
NORTHEAST ILLINOIS

CITY           SKY/WX    TMP DP  RH WIND       PRES   REMARKS
OHARE          SUNNY     70  41  34 SW18G28   30.02F
MIDWAY         MOSUNNY   71  41  33 S17G28    30.04F
AURORA         SUNNY     71  41  33 S20G26    30.03F
LANSING*       SUNNY     69  46  42 S13       30.07F
JOLIET*        SUNNY     72  42  33 S17       30.05F
WAUKEGAN       SUNNY     71  44  37 S15G24    29.99F
DUPAGE AIRPORT SUNNY     70  42  36 S14G30    30.02F
WHEELING       SUNNY     71  43  36 S20G25    30.03F
KANKAKEE*      SUNNY     71  39  30 S14       30.09F
MORRIS*        SUNNY     73  40  30 S17G23    30.04F
NORTHERLY ISL    N/A     70  38  31 S18         N/A
$$

WIZ051-052-058>065-066-070>072-182200-
SOUTHEAST WISCONSIN

CITY           SKY/WX    TMP DP  RH WIND       PRES   REMARKS
MILWAUKEE      MOSUNNY   72  43  35 SW28G33   29.97F
KENOSHA*       SUNNY     71  42  35 SW18G28   29.99F
RACINE*        SUNNY     71  43  36 S17G26    29.99F
WAUKESHA       SUNNY     70  39  32 S18G26    29.97F
WEST BEND      SUNNY     70  37  30 SW16G23   29.93F
$$

INZ001>003-010>013-019-020-182200-
NORTHWEST INDIANA

CITY           SKY/WX    TMP DP  RH WIND       PRES   REMARKS
GARY*          SUNNY     72  34  25 S7G25     30.08S
MICHIGAN CITY* NOT AVBL
RENSSELAER*    NOT AVBL
VALPARAISO     SUNNY     71  40  32 S15G23    30.10F
$$

LMZ740>746-182200-
SOUTHERN LAKE MICHIGAN

STATION/POSITION TIME  SKY/WX   TEMP WIND        PRES    VSBY
                                AIR  DIR/SP/G
                 (UTC)          (F)  (DEG/KT/KT) (MB)    (MI)
HARRISON CRIB    2040            69  200/ 22/ 25   N/A
BURNHAM HARBOR   2100            70  180/ 18/ 20   N/A
CALUMET HARBOR   2030            69  170/ 14/ 19 1017.2F
BURNS HARBOR     2040            68  200/ 17/ 22 1019.0S
MICHIGAN CITY    2040            68  170/ 16/ 21   N/A
$$

ABBREVIATIONS USED IN REMARKS
   TC - TEMPERATURE IN CELSIUS
  WCI - WIND CHILL INDEX
   HX - HEAT INDEX
  VSB - VISIBILITY
$$




USA.gov is the U.S. government's official web portal to all federal, state and local government web resources and services.